| time (UTC) | temp F | wind direction | speed knots | gust knots | rain 1hr in | rain 24hr in | rain mn in | humidity % | barometer mb |
| 20260505015317 | 74 | 304 | 1.7 | 1.7 | 0.00 | 0.00 | 0.00 | 55 | 1017.0 |
| 20260505011305 | 73 | 284 | 1.7 | 3.5 | 0.00 | 0.00 | 0.00 | 57 | 1017.8 |
| 20260505005259 | 74 | 298 | 2.6 | 2.6 | 0.00 | 0.00 | 0.00 | 57 | 1017.8 |
| 20260504235240 | 74 | 112 | 0.9 | 2.6 | 0.00 | 0.00 | 0.00 | 57 | 1018.2 |
| 20260504233234 | 73 | 233 | 2.6 | 3.5 | 0.00 | 0.00 | 0.00 | 60 | 1018.5 |
| 20260504231228 | 70 | 238 | 1.7 | 3.5 | 0.00 | 0.00 | 0.00 | 64 | 1018.6 |
| 20260504223215 | 68 | 239 | 0.0 | 0.9 | 0.00 | 0.00 | 0.00 | 68 | 1019.0 |
| 20260504221209 | 66 | 112 | 0.9 | 0.9 | 0.00 | 0.00 | 0.00 | 67 | 1018.9 |
| 20260504215203 | 63 | 0 | 0.0 | 0.0 | 0.00 | 0.00 | 0.00 | 71 | 1019.2 |
| 20260504213156 | 61 | 0 | 0.0 | 0.0 | 0.00 | 0.00 | 0.00 | 72 | 1018.8 |
| 20260504211150 | 60 | 112 | 0.0 | 0.0 | 0.00 | 0.00 | 0.00 | 72 | 1019.0 |
| 20260504203138 | 59 | 315 | 0.0 | 0.0 | 0.00 | 0.00 | 0.00 | 72 | 1018.6 |
| 20260504195125 | 57 | 0 | 0.0 | 0.0 | 0.00 | 0.00 | 0.00 | 71 | 1018.5 |
| 20260504193119 | 57 | 0 | 0.0 | 0.0 | 0.00 | 0.00 | 0.00 | 72 | 1018.4 |
| 20260504185107 | 55 | 135 | 0.0 | 0.0 | 0.00 | 0.00 | 0.00 | 72 | 1017.9 |
| 20260504175048 | 53 | 0 | 0.0 | 0.0 | 0.00 | 0.00 | 0.00 | 75 | 1017.8 |
| 20260504174045 | 53 | 0 | 0.0 | 0.0 | 0.00 | 0.00 | 0.00 | 74 | 1017.8 |
| 20260504173042 | 52 | 0 | 0.0 | 0.0 | 0.00 | 0.00 | 0.00 | 74 | 1017.7 |
| 20260504171036 | 52 | 0 | 0.0 | 0.0 | 0.00 | 0.00 | 0.00 | 73 | 1017.6 |
| 20260504140940 | 55 | 180 | 0.0 | 0.0 | 0.00 | 0.00 | 0.00 | 64 | 1018.1 |
| 20260504080748 | 65 | 180 | 0.0 | 0.0 | 0.00 | 0.00 | 0.00 | 45 | 1017.1 |
| 20260504050652 | 82 | 321 | 0.9 | 2.6 | 0.00 | 0.00 | 0.00 | 27 | 1015.1 |
| 20260504044646 | 82 | 249 | 5.2 | 5.2 | 0.00 | 0.00 | 0.00 | 26 | 1015.0 |
| 20260504040634 | 81 | 307 | 1.7 | 6.1 | 0.00 | 0.00 | 0.00 | 29 | 1015.2 |
| 20260504034627 | 82 | 346 | 0.9 | 3.5 | 0.00 | 0.00 | 0.00 | 29 | 1015.4 |
| 20260504032621 | 81 | 268 | 2.6 | 5.2 | 0.00 | 0.00 | 0.00 | 30 | 1015.7 |
| 20260504030615 | 81 | 227 | 1.7 | 5.2 | 0.00 | 0.00 | 0.00 | 30 | 1015.7 |
| 20260504025612 | 80 | 112 | 2.6 | 4.3 | 0.00 | 0.00 | 0.00 | 30 | 1015.9 |